IGO567 VOMM-VOTR

Flight info

Callsign IGO567
Flight time 0h 31m
Altitude 16000
Route MMV R457 TTR
Aircraft A20N/M-SDE2E3FGHIRWXY/LB1

Departure

Time 2026-05-05 22:07
Airport Chennai International Airport (VOMM)

Arrival

Time 2026-05-05 22:39
Airport Tiruchirappalli International Airport (VOTR)
Time Latitude Longitude Altitude Speed Heading
2026-05-05 21:26 12.98418 80.16493 47 ft 0 kts 160°
2026-05-05 21:55 12.98428 80.16489 55 ft 2 kts 158°
2026-05-05 21:56 12.98442 80.16483 51 ft 2 kts 154°
2026-05-05 21:56 12.98457 80.16475 49 ft 2 kts 146°
2026-05-05 21:56 12.98469 80.16464 50 ft 2 kts 120°
2026-05-05 21:56 12.98473 80.16448 52 ft 2 kts 75°
2026-05-05 21:57 12.98471 80.16441 50 ft 0 kts 69°
2026-05-05 21:59 12.98471 80.16442 49 ft 0 kts 69°
2026-05-05 21:59 12.98479 80.16463 53 ft 6 kts 68°
2026-05-05 22:00 12.98500 80.16518 55 ft 11 kts 69°
2026-05-05 22:00 12.98531 80.16604 51 ft 15 kts 69°
2026-05-05 22:00 12.98573 80.16717 52 ft 19 kts 69°
2026-05-05 22:00 12.98663 80.16752 53 ft 16 kts 340°
2026-05-05 22:01 12.98753 80.16737 52 ft 2 kts 26°
2026-05-05 22:01 12.98768 80.16765 53 ft 7 kts 70°
2026-05-05 22:01 12.98791 80.16830 52 ft 12 kts 69°
2026-05-05 22:01 12.98829 80.16927 51 ft 17 kts 69°
2026-05-05 22:02 12.98877 80.17054 51 ft 21 kts 69°
2026-05-05 22:02 12.98932 80.17207 55 ft 25 kts 69°
2026-05-05 22:02 12.99010 80.17372 53 ft 27 kts 69°
2026-05-05 22:02 12.99081 80.17563 54 ft 30 kts 69°
2026-05-05 22:03 12.99150 80.17698 53 ft 0 kts 28°
2026-05-05 22:03 12.99157 80.17699 54 ft 2 kts
2026-05-05 22:03 12.99187 80.17701 50 ft 6 kts 12°
2026-05-05 22:03 12.99210 80.17735 50 ft 8 kts 59°
2026-05-05 22:04 12.99236 80.17801 56 ft 12 kts 68°
2026-05-05 22:04 12.99273 80.17898 50 ft 17 kts 68°
2026-05-05 22:04 12.99322 80.18024 52 ft 21 kts 69°
2026-05-05 22:04 12.99368 80.18173 56 ft 21 kts 95°
2026-05-05 22:05 12.99392 80.18278 57 ft 12 kts 46°
2026-05-05 22:05 12.99464 80.18351 55 ft 17 kts 42°
2026-05-05 22:05 12.99566 80.18416 55 ft 11 kts 352°
2026-05-05 22:05 12.99576 80.18392 54 ft 5 kts 270°
2026-05-05 22:06 12.99570 80.18373 50 ft 0 kts 250°
2026-05-05 22:06 12.99570 80.18372 50 ft 1 kts 250°
2026-05-05 22:06 12.99541 80.18295 51 ft 45 kts 248°
2026-05-05 22:06 12.99312 80.17688 55 ft 133 kts 249°
2026-05-05 22:07 12.98895 80.16581 103 ft 194 kts 249°
2026-05-05 22:07 12.98375 80.15182 445 ft 227 kts 248°
2026-05-05 22:07 12.97761 80.13558 1013 ft 256 kts 247°
2026-05-05 22:07 12.96929 80.11905 1867 ft 265 kts 228°
2026-05-05 22:08 12.95498 80.10732 2923 ft 267 kts 211°
2026-05-05 22:08 12.93897 80.09708 3843 ft 276 kts 211°
2026-05-05 22:08 12.93175 80.09254 4228 ft 280 kts 211°
2026-05-05 22:08 12.92175 80.08628 4766 ft 285 kts 211°
2026-05-05 22:09 12.90480 80.07567 5658 ft 292 kts 211°
2026-05-05 22:09 12.88724 80.06465 6549 ft 298 kts 211°
2026-05-05 22:09 12.86943 80.05343 7471 ft 302 kts 211°
2026-05-05 22:09 12.85138 80.04204 8350 ft 307 kts 211°
2026-05-05 22:10 12.83303 80.03046 9230 ft 313 kts 211°
2026-05-05 22:10 12.81434 80.01867 10091 ft 317 kts 211°
2026-05-05 22:10 12.79549 80.00679 10976 ft 319 kts 211°
2026-05-05 22:10 12.77649 79.99482 11839 ft 322 kts 211°
2026-05-05 22:11 12.75731 79.98273 12701 ft 325 kts 212°
2026-05-05 22:11 12.73790 79.97050 13535 ft 329 kts 212°
2026-05-05 22:11 12.71827 79.95813 14286 ft 332 kts 212°
2026-05-05 22:11 12.69848 79.94566 15027 ft 336 kts 212°
2026-05-05 22:12 12.67840 79.93301 15185 ft 338 kts 212°
2026-05-05 22:12 12.65840 79.92041 15290 ft 338 kts 212°
2026-05-05 22:12 12.63870 79.90801 15394 ft 338 kts 212°
2026-05-05 22:12 12.61863 79.89537 15497 ft 338 kts 212°
2026-05-05 22:13 12.59858 79.88275 15600 ft 339 kts 212°
2026-05-05 22:13 12.57849 79.87010 15704 ft 339 kts 212°
2026-05-05 22:13 12.57169 79.86582 15732 ft 339 kts 212°
2026-05-05 22:13 12.55141 79.85306 15795 ft 340 kts 212°
2026-05-05 22:14 12.53127 79.84039 15802 ft 339 kts 212°
2026-05-05 22:14 12.51114 79.82773 15802 ft 339 kts 212°
2026-05-05 22:14 12.49102 79.81508 15801 ft 340 kts 212°
2026-05-05 22:14 12.47089 79.80242 15800 ft 339 kts 212°
2026-05-05 22:15 12.45076 79.78976 15802 ft 340 kts 212°
2026-05-05 22:15 12.43065 79.77712 15801 ft 339 kts 212°
2026-05-05 22:15 12.41051 79.76447 15805 ft 340 kts 212°
2026-05-05 22:15 12.39041 79.75184 15805 ft 339 kts 212°
2026-05-05 22:16 12.37057 79.73937 15804 ft 339 kts 212°
2026-05-05 22:16 12.35046 79.72674 15805 ft 339 kts 212°
2026-05-05 22:16 12.33033 79.71410 15807 ft 340 kts 212°
2026-05-05 22:16 12.31022 79.70147 15808 ft 339 kts 212°
2026-05-05 22:17 12.29007 79.68881 15805 ft 339 kts 212°
2026-05-05 22:17 12.26992 79.67616 15807 ft 340 kts 212°
2026-05-05 22:17 12.24981 79.66354 15811 ft 339 kts 212°
2026-05-05 22:17 12.22996 79.65108 15809 ft 339 kts 212°
2026-05-05 22:18 12.20960 79.63831 15808 ft 339 kts 212°
2026-05-05 22:18 12.18978 79.62587 15809 ft 339 kts 212°
2026-05-05 22:18 12.16965 79.61326 15814 ft 339 kts 212°
2026-05-05 22:18 12.14957 79.60066 15809 ft 339 kts 212°
2026-05-05 22:19 12.12949 79.58807 15809 ft 339 kts 212°
2026-05-05 22:19 12.10942 79.57550 15809 ft 339 kts 212°
2026-05-05 22:19 12.08922 79.56284 15810 ft 339 kts 212°
2026-05-05 22:19 12.06915 79.55026 15808 ft 339 kts 212°
2026-05-05 22:20 12.04905 79.53767 15809 ft 339 kts 212°
2026-05-05 22:20 12.02900 79.52511 15809 ft 338 kts 212°
2026-05-05 22:20 12.00885 79.51249 15812 ft 339 kts 212°
2026-05-05 22:20 11.98898 79.50005 15811 ft 338 kts 212°
2026-05-05 22:21 11.96889 79.48748 15813 ft 338 kts 212°
2026-05-05 22:21 11.94882 79.47491 15813 ft 339 kts 212°
2026-05-05 22:21 11.92874 79.46235 15811 ft 338 kts 212°
2026-05-05 22:21 11.90866 79.44979 15810 ft 338 kts 212°
2026-05-05 22:22 11.88863 79.43726 15808 ft 338 kts 212°
2026-05-05 22:22 11.86856 79.42470 15810 ft 338 kts 212°
2026-05-05 22:22 11.84847 79.41214 15809 ft 338 kts 212°
2026-05-05 22:22 11.82843 79.39961 15807 ft 338 kts 212°
2026-05-05 22:23 11.80833 79.38704 15810 ft 338 kts 212°
2026-05-05 22:23 11.78827 79.37450 15809 ft 339 kts 212°
2026-05-05 22:23 11.76821 79.36197 15807 ft 338 kts 212°
2026-05-05 22:23 11.74817 79.34944 15811 ft 338 kts 212°
2026-05-05 22:24 11.73487 79.34114 15811 ft 338 kts 212°
2026-05-05 22:24 11.71478 79.32859 15810 ft 338 kts 212°
2026-05-05 22:24 11.69472 79.31606 15809 ft 338 kts 212°
2026-05-05 22:24 11.67463 79.30352 15810 ft 338 kts 212°
2026-05-05 22:25 11.65456 79.29099 15810 ft 338 kts 212°
2026-05-05 22:25 11.63450 79.27847 15806 ft 338 kts 212°
2026-05-05 22:25 11.61445 79.26596 15808 ft 338 kts 212°
2026-05-05 22:25 11.59433 79.25345 15809 ft 338 kts 210°
2026-05-05 22:26 11.57323 79.24297 15811 ft 338 kts 201°
2026-05-05 22:26 11.55130 79.23436 15804 ft 338 kts 201°
2026-05-05 22:26 11.52939 79.22566 15804 ft 338 kts 201°
2026-05-05 22:26 11.50746 79.21690 15808 ft 338 kts 201°
2026-05-05 22:27 11.48584 79.20826 15807 ft 338 kts 201°
2026-05-05 22:27 11.46363 79.19938 15807 ft 338 kts 201°
2026-05-05 22:27 11.44174 79.19063 15807 ft 338 kts 201°
2026-05-05 22:27 11.42011 79.18200 15806 ft 338 kts 201°
2026-05-05 22:28 11.39820 79.17325 15806 ft 338 kts 201°
2026-05-05 22:28 11.37633 79.16453 15804 ft 338 kts 201°
2026-05-05 22:28 11.35444 79.15580 15803 ft 338 kts 201°
2026-05-05 22:28 11.33254 79.14706 15804 ft 338 kts 201°
2026-05-05 22:29 11.31064 79.13833 15805 ft 338 kts 201°
2026-05-05 22:29 11.28875 79.12960 15805 ft 338 kts 201°
2026-05-05 22:29 11.26690 79.12089 15720 ft 336 kts 201°
2026-05-05 22:29 11.24519 79.11224 15382 ft 336 kts 201°
2026-05-05 22:30 11.22335 79.10353 14831 ft 338 kts 201°
2026-05-05 22:30 11.20138 79.09478 14286 ft 340 kts 201°
2026-05-05 22:30 11.17924 79.08596 13742 ft 342 kts 201°
2026-05-05 22:30 11.15702 79.07711 13148 ft 343 kts 201°
2026-05-05 22:31 11.13477 79.06824 12542 ft 344 kts 201°
2026-05-05 22:31 11.11248 79.05936 11961 ft 344 kts 201°
2026-05-05 22:31 11.09017 79.05047 11385 ft 344 kts 201°
2026-05-05 22:31 11.06786 79.04159 10820 ft 344 kts 201°
2026-05-05 22:32 11.04556 79.03272 10265 ft 344 kts 201°
2026-05-05 22:32 11.02328 79.02385 9716 ft 343 kts 201°
2026-05-05 22:32 11.00107 79.01501 9114 ft 342 kts 201°
2026-05-05 22:32 10.97917 79.00631 8527 ft 342 kts 201°
2026-05-05 22:33 10.95705 78.99751 7944 ft 341 kts 201°
2026-05-05 22:33 10.93669 78.98941 7417 ft 340 kts 201°
2026-05-05 22:33 10.91473 78.98068 6841 ft 339 kts 201°
2026-05-05 22:33 10.89267 78.97191 6161 ft 341 kts 201°
2026-05-05 22:34 10.87039 78.96306 5295 ft 347 kts 201°
2026-05-05 22:34 10.84769 78.95404 4434 ft 352 kts 201°
2026-05-05 22:34 10.82494 78.94501 3665 ft 345 kts 201°
2026-05-05 22:34 10.80400 78.93492 3385 ft 320 kts 215°
2026-05-05 22:35 10.78903 78.91961 3256 ft 294 kts 237°
2026-05-05 22:35 10.78126 78.90144 3140 ft 271 kts 257°
2026-05-05 22:35 10.77927 78.88316 3034 ft 251 kts 265°
2026-05-05 22:35 10.77797 78.86620 2998 ft 230 kts 265°
2026-05-05 22:36 10.77673 78.85077 3000 ft 209 kts 265°
2026-05-05 22:36 10.77554 78.83597 2798 ft 212 kts 265°
2026-05-05 22:36 10.77435 78.82115 2521 ft 210 kts 265°
2026-05-05 22:36 10.77321 78.80732 2391 ft 197 kts 265°
2026-05-05 22:37 10.77214 78.79422 2328 ft 176 kts 265°
2026-05-05 22:37 10.77131 78.78265 2307 ft 150 kts 266°
2026-05-05 22:37 10.77055 78.77297 2258 ft 133 kts 267°
2026-05-05 22:37 10.76998 78.76295 1652 ft 152 kts 266°
2026-05-05 22:38 10.76886 78.75195 1073 ft 156 kts 265°
2026-05-05 22:38 10.76820 78.74117 727 ft 146 kts 265°
2026-05-05 22:38 10.76730 78.73140 478 ft 134 kts 265°
2026-05-05 22:38 10.76664 78.72275 320 ft 122 kts 265°
2026-05-05 22:39 10.76602 78.71504 309 ft 87 kts 265°
2026-05-05 22:39 10.76565 78.71037 310 ft 47 kts 267°
2026-05-05 22:39 10.76531 78.70928 312 ft 4 kts 197°
2026-05-05 22:39 10.76493 78.70937 311 ft 4 kts 144°
2026-05-05 22:40 10.76439 78.70969 310 ft 13 kts 149°
2026-05-05 22:40 10.76348 78.71025 310 ft 17 kts 148°
2026-05-05 22:40 10.76239 78.71093 310 ft 20 kts 150°
2026-05-05 22:40 10.76135 78.71159 307 ft 9 kts 120°
2026-05-05 22:41 10.76136 78.71162 307 ft 0 kts 102°
2026-05-05 22:41 10.76139 78.71203 308 ft 15 kts 87°
2026-05-05 22:41 10.76146 78.71314 308 ft 12 kts 85°
2026-05-05 22:41 10.76130 78.71393 309 ft 7 kts 153°
2026-05-05 22:42 10.76104 78.71384 306 ft 6 kts 209°
2026-05-05 22:42 10.76080 78.71376 306 ft 0 kts 173°